When you browse on this site, cookies collect data to enhance your experience and personalize the content and advertising you see.
Visit our Privacy Policy to learn more. By continuing to use the site, you agree to this use of cookies and data.
  • In Portugal
  • List of Countries
  • For 7 days
  • Water Temperature
  • Weather Map
  • Weather Widgets
  • user-avatar
    Login

    Hourly Weather Balyksa

    Today, 6 June, Saturday

    Time Temperature Precipitation Wind Pressure Humidity
    00:00 +6°C° 0 mm 1 mps 716 mmHg 97%
    01:00 +5°C° 0 mm 2 mps 716 mmHg 97%
    02:00 +6°C° 0 mm 2 mps 716 mmHg 97%
    03:00 +6°C° 0 mm 2 mps 716 mmHg 97%
    04:00 +6°C° 0.2 mm 2 mps 717 mmHg 97%
    05:00 +6°C° 0.2 mm 2 mps 718 mmHg 97%
    06:00 +6°C° 0 mm 2 mps 718 mmHg 97%
    07:00 +7°C° 0.1 mm 2 mps 719 mmHg 95%
    08:00 +8°C° 0.1 mm 3 mps 719 mmHg 92%
    09:00 +8°C° 0.1 mm 3 mps 719 mmHg 89%
    10:00 +8°C° 0.5 mm 3 mps 719 mmHg 91%
    11:00 +8°C° 0.5 mm 3 mps 720 mmHg 93%
    12:00 +7°C° 0 mm 3 mps 720 mmHg 96%
    13:00 +7°C° 1.4 mm 3 mps 720 mmHg 97%
    14:00 +7°C° 1.4 mm 3 mps 720 mmHg 97%
    15:00 +7°C° 1.4 mm 3 mps 719 mmHg 97%
    16:00 +8°C° 0.4 mm 2 mps 720 mmHg 97%
    17:00 +8°C° 0.4 mm 2 mps 720 mmHg 96%
    18:00 +8°C° 0 mm 2 mps 721 mmHg 96%
    19:00 +9°C° 0 mm 1 mps 721 mmHg 96%
    20:00 +9°C° 0 mm 1 mps 722 mmHg 97%
    21:00 +9°C° 0 mm 1 mps 722 mmHg 98%
    22:00 +9°C° 0.1 mm 1 mps 722 mmHg 98%
    23:00 +8°C° 0.1 mm 1 mps 723 mmHg 98%

    Tomorrow, 7 June, Sunday

    Time Temperature Precipitation Wind Pressure Humidity
    00:00 +7°C° 0.1 mm 2 mps 723 mmHg 98%
    01:00 +7°C° 0.2 mm 2 mps 723 mmHg 98%
    02:00 +8°C° 0.2 mm 1 mps 723 mmHg 98%
    03:00 +9°C° 0.2 mm 1 mps 723 mmHg 99%
    04:00 +8°C° 0.2 mm 2 mps 723 mmHg 98%
    05:00 +8°C° 0.2 mm 2 mps 723 mmHg 98%
    06:00 +8°C° 0.2 mm 3 mps 723 mmHg 98%
    07:00 +8°C° 0.5 mm 3 mps 723 mmHg 97%
    08:00 +8°C° 0.5 mm 3 mps 723 mmHg 97%
    09:00 +8°C° 0.5 mm 3 mps 723 mmHg 96%
    10:00 +9°C° 0.4 mm 3 mps 723 mmHg 95%
    11:00 +9°C° 0.4 mm 3 mps 723 mmHg 95%
    12:00 +9°C° 0.4 mm 3 mps 723 mmHg 94%
    13:00 +9°C° 0.9 mm 2 mps 722 mmHg 95%
    14:00 +10°C° 0.9 mm 2 mps 722 mmHg 95%
    15:00 +10°C° 0.9 mm 2 mps 722 mmHg 96%
    16:00 +10°C° 1 mm 2 mps 722 mmHg 96%
    17:00 +10°C° 1 mm 2 mps 722 mmHg 97%
    18:00 +12°C° 1 mm 2 mps 722 mmHg 98%
    19:00 +12°C° 1.3 mm 2 mps 722 mmHg 98%
    20:00 +10°C° 1.3 mm 2 mps 722 mmHg 98%
    21:00 +10°C° 1.3 mm 2 mps 722 mmHg 98%
    22:00 +10°C° 0.2 mm 1 mps 722 mmHg 98%
    23:00 +9°C° 0.2 mm 1 mps 722 mmHg 98%

    Day after tomorrow, 8 June, Monday

    Time Temperature Precipitation Wind Pressure Humidity
    00:00 +8°C° 0.2 mm 1 mps 722 mmHg 98%
    01:00 +8°C° 0 mm 1 mps 722 mmHg 97%
    02:00 +7°C° 0 mm 1 mps 722 mmHg 97%
    03:00 +7°C° 0 mm 1 mps 722 mmHg 97%
    04:00 +8°C° 0 mm 1 mps 722 mmHg 97%
    05:00 +8°C° 0 mm 1 mps 723 mmHg 96%
    06:00 +9°C° 0 mm 1 mps 723 mmHg 96%
    07:00 +11°C° 0 mm 1 mps 723 mmHg 88%
    08:00 +12°C° 0 mm 2 mps 723 mmHg 80%
    09:00 +13°C° 0 mm 2 mps 723 mmHg 72%
    10:00 +13°C° 0 mm 3 mps 723 mmHg 63%
    11:00 +14°C° 0 mm 3 mps 723 mmHg 55%
    12:00 +17°C° 0 mm 4 mps 723 mmHg 46%
    13:00 +17°C° 0 mm 4 mps 723 mmHg 46%
    14:00 +17°C° 0 mm 4 mps 722 mmHg 45%
    15:00 +18°C° 0 mm 4 mps 722 mmHg 45%
    16:00 +17°C° 0 mm 4 mps 722 mmHg 47%
    17:00 +17°C° 0 mm 3 mps 722 mmHg 50%
    18:00 +16°C° 0 mm 3 mps 722 mmHg 53%
    19:00 +14°C° 0 mm 2 mps 722 mmHg 61%
    20:00 +12°C° 0 mm 2 mps 721 mmHg 69%
    21:00 +10°C° 0 mm 1 mps 721 mmHg 77%
    22:00 +10°C° 0 mm 1 mps 720 mmHg 80%
    23:00 +9°C° 0 mm 2 mps 720 mmHg 84%

    9 June, Tuesday

    Time Temperature Precipitation Wind Pressure Humidity
    00:00 +8°C° 0 mm 2 mps 719 mmHg 87%
    01:00 +9°C° 1.2 mm 2 mps 718 mmHg 90%
    02:00 +9°C° 1.2 mm 3 mps 717 mmHg 93%
    03:00 +9°C° 1.2 mm 3 mps 716 mmHg 96%
    04:00 +10°C° 2.7 mm 3 mps 716 mmHg 97%
    05:00 +10°C° 2.7 mm 3 mps 716 mmHg 98%
    06:00 +11°C° 2.7 mm 3 mps 717 mmHg 98%
    07:00 +11°C° 0.6 mm 3 mps 717 mmHg 98%
    08:00 +11°C° 0.6 mm 3 mps 717 mmHg 97%
    09:00 +12°C° 0.6 mm 3 mps 718 mmHg 97%
    10:00 +12°C° 0.2 mm 3 mps 718 mmHg 93%
    11:00 +12°C° 0.2 mm 3 mps 718 mmHg 90%
    12:00 +13°C° 0.2 mm 4 mps 719 mmHg 86%
    13:00 +13°C° 0.1 mm 4 mps 719 mmHg 80%
    14:00 +13°C° 0.1 mm 4 mps 719 mmHg 74%
    15:00 +14°C° 0.1 mm 4 mps 719 mmHg 68%
    16:00 +14°C° 0.1 mm 4 mps 719 mmHg 66%
    17:00 +13°C° 0.1 mm 5 mps 720 mmHg 65%
    18:00 +13°C° 0.1 mm 5 mps 720 mmHg 63%
    19:00 +11°C° 0.1 mm 4 mps 720 mmHg 72%
    20:00 +10°C° 0.1 mm 3 mps 720 mmHg 82%
    21:00 +8°C° 0.1 mm 2 mps 720 mmHg 91%
    22:00 +8°C° 0.1 mm 2 mps 721 mmHg 92%
    23:00 +8°C° 0.1 mm 1 mps 721 mmHg 94%

    10 June, Wednesday

    Time Temperature Precipitation Wind Pressure Humidity
    00:00 +8°C° 0.1 mm 1 mps 721 mmHg 96%
    01:00 +7°C° 0.1 mm 1 mps 721 mmHg 96%
    02:00 +7°C° 0.1 mm 1 mps 721 mmHg 97%
    03:00 +6°C° 0.1 mm 1 mps 721 mmHg 98%
    04:00 +7°C° 0 mm 1 mps 722 mmHg 96%
    05:00 +7°C° 0 mm 1 mps 722 mmHg 94%
    06:00 +8°C° 0 mm 1 mps 722 mmHg 93%
    07:00 +9°C° 0 mm 1 mps 722 mmHg 87%
    08:00 +10°C° 0 mm 1 mps 722 mmHg 81%
    09:00 +10°C° 0 mm 2 mps 723 mmHg 75%
    10:00 +12°C° 0 mm 2 mps 723 mmHg 69%
    11:00 +12°C° 0 mm 3 mps 723 mmHg 63%
    12:00 +14°C° 0 mm 3 mps 723 mmHg 57%
    13:00 +14°C° 0 mm 3 mps 723 mmHg 55%
    14:00 +16°C° 0 mm 3 mps 723 mmHg 53%
    15:00 +17°C° 0 mm 3 mps 723 mmHg 50%
    16:00 +16°C° 0 mm 3 mps 723 mmHg 53%
    17:00 +16°C° 0 mm 3 mps 723 mmHg 55%
    18:00 +14°C° 0 mm 3 mps 723 mmHg 58%
    19:00 +13°C° 0 mm 2 mps 723 mmHg 69%
    20:00 +11°C° 0 mm 1 mps 723 mmHg 79%
    21:00 +9°C° 0 mm 1 mps 723 mmHg 90%
    22:00 +8°C° 0 mm 1 mps 723 mmHg 92%
    23:00 +8°C° 0 mm 1 mps 722 mmHg 93%

    11 June, Thursday

    Time Temperature Precipitation Wind Pressure Humidity
    00:00 +7°C° 0 mm 0 mps 722 mmHg 95%
    01:00 +8°C° 0 mm 1 mps 722 mmHg 95%
    02:00 +8°C° 0 mm 1 mps 722 mmHg 95%
    03:00 +9°C° 0 mm 1 mps 722 mmHg 95%
    04:00 +9°C° 0.1 mm 1 mps 722 mmHg 95%
    05:00 +10°C° 0.1 mm 1 mps 722 mmHg 96%
    06:00 +10°C° 0.1 mm 1 mps 722 mmHg 96%
    07:00 +10°C° 0.4 mm 1 mps 722 mmHg 97%
    08:00 +10°C° 0.4 mm 2 mps 722 mmHg 97%
    09:00 +10°C° 0.4 mm 2 mps 722 mmHg 98%
    10:00 +12°C° 0.3 mm 2 mps 722 mmHg 97%
    11:00 +12°C° 0.3 mm 2 mps 721 mmHg 97%
    12:00 +11°C° 0.3 mm 3 mps 721 mmHg 96%
    13:00 +12°C° 0.4 mm 2 mps 721 mmHg 97%
    14:00 +12°C° 0.4 mm 2 mps 721 mmHg 97%
    15:00 +12°C° 0.4 mm 2 mps 721 mmHg 97%
    16:00 +12°C° 0.1 mm 2 mps 721 mmHg 96%
    17:00 +13°C° 0.1 mm 2 mps 720 mmHg 96%
    18:00 +13°C° 0.1 mm 2 mps 720 mmHg 95%
    19:00 +12°C° 0 mm 1 mps 720 mmHg 96%
    20:00 +12°C° 0 mm 1 mps 720 mmHg 97%
    21:00 +12°C° 0 mm 1 mps 720 mmHg 99%
    22:00 +12°C° 0.3 mm 1 mps 720 mmHg 99%
    23:00 +12°C° 0.3 mm 1 mps 720 mmHg 99%
    Show more